星链-33918 (STARLINK-33918)

导读

STARLINK-33918是由美国发射的星链系列卫星,于2025年5月2日成功入轨,属于SpaceX公司星链星座组网任务的组成部分。星链计划旨在构建全球卫星互联网星座,为全球各地用户提供低延迟、高速率的宽带网络服务,该卫星进一步扩充了星链星座的覆盖范围与服务能力。

Basic Information
目录编号:
63796
目录名称:
STARLINK-33918
国际标识:
2025-091X
轨道中心:
EARTH
卫星名称:
星链-33918
卫星全名:
星链-33918 (STARLINK-33918)
卫星状态:
在轨 (已飞行490 天)
发射日期:
2025-05-02 UTC
国别 :
美国 (US)
星等 :
--
Orbit Information
数据来源 国际轨道数据
星历时间: 2026-09-04T00:41:08+0800
1天前
查看轨道信息
半长轴: 6861.147km
偏心率: 0.0000585
轨道倾角: 42.999°
近地点辐角 256.643°
升交点赤经 127.432°
平近点角 103.436°
近地点: 482.608km
远地点: 483.412km
周期: 94.266分钟
每日圈数: 15.275933
Detailed Information
固有亮度:
5
最大亮度:
2.5
卫星平台:
Starlink V1.0
覆盖范围:
全球
运营商:
太空探索技术公司
运营商所在国:
美国
制造商(研发单位):
太空探索技术公司
制造商所在国:
美国
使用方式:
暂无
Satellite Introduction
Starlink 计划是 SpaceX 推出的全球卫星互联网项目,通过发射低轨道卫星,为全球尤其是偏远地区提供高速、低延迟的互联网服务。自 2019 年起,Starlink 已部署数千颗卫星,旨在缩小全球数字鸿沟,推动互联网普及。该项目还为军事、航空等行业提供通信支持,带来广泛经济效益。
2D Orbit Map
3D Orbit Map
Orbit Altitude Analysis Chart
Orbit Inclination Analysis Chart
Orbit Comprehensive Analysis Chart
View Comprehensive Chart
Conjunction Data List
Event ID Objects TCA Miss Dist (km) Collision Risk Probability Collision Risk Index (CRI) Action
CDM_260906-144805-560306-379621
2026-09-06T
14:48:38+0000
0.582 km
远距离
7.223895E-5 中风险 0.72
CDM_260906-212605-628906-379621
2026-09-06T
21:26:11+0000
0.988 km
远距离
2.059643E-5 中风险 0.61
CDM_260830-180005-950206-379621
2026-08-30T
18:00:50+0000
1.098 km
极远距离
1.058361E-5 中风险 0.55
CDM_260906-131405-560306-379621
2026-09-06T
13:14:28+0000
1.399 km
极远距离
4.108467E-6 低风险 0.47
CDM_260906-230005-628906-379621
2026-09-06T
23:00:20+0000
1.878 km
极远距离
2.538158E-6 低风险 0.43
CDM_260830-193505-950206-379621
2026-08-30T
19:35:00+0000
2.253 km
极远距离
1.274214E-6 低风险 0.37
CDM_260906-162205-560306-379621
2026-09-06T
16:22:47+0000
2.472 km
极远距离
9.641962E-7 极低风险 0.35